RH
80 94 97 92 88 70 71 84 89 73 59 66 70 69 59 51 46 41 37 34 39 38 31 33 51 51 54 49 49 61 86 79 85 90 97 100 82 100 98 79 86 86 87 91
83 91 76 74 74 81 85 91 82 71 61 64 70 72 58 52 47 43 46 42 39 38 36 60 50 52 49 46 55 75 85 82 82 81 99 94 98 99 80 87 86 86 82 91
78 73 72 78 80 85 80 86 86 90 68 71 75 80 66 48 48 46 43 51 59 61 51 53 50 52 52 74 76 77 86 81 81 76 100 100 100 100 91 80 85 89 90 87
88 72 80 84 83 71 87 66 74 80 96 95 59 92 71 87 80 54 45 31 38 48 60 55 56 68 85 98 92 88 86 77 60 80 100 100 100 100 89 89 84 83 80 78
81 91 90 95 74 68 76 62 70 80 99 97 82 94 82 82 93 92 87 79 58 48 53 56 61 75 90 90 88 98 95 85 57 71 100 97 99 100 99 95 85 81 83 77
92 83 85 79 63 58 63 91 87 96 99 100 82 86 99 99 98 89 84 84 82 59 64 64 78 85 87 93 100 100 99 94 67 97 98 97 95 91 95 90 86 88 89 85
86 88 79 76 86 82 96 100 97 97 96 96 100 97 100 99 93 86 88 87 98 93 72 88 99 99 94 80 100 99 100 92 89 98 100 98 97 88 93 82 83 83 83 81
88 84 87 75 92 100 100 100 98 96 97 96 99 98 99 96 93 95 100 100 100 93 98 99 94 97 91 94 98 98 100 99 100 100 98 100 98 95 94 96 90 87 85 85
88 86 63 70 71 89 91 100 94 100 99 88 98 98 97 93 91 90 95 91 100 99 94 87 89 90 84 81 83 91 91 90 94 98 91 92 97 94 84 80 83 92 82 74
70 92 66 60 69 74 84 75 95 98 94 96 88 98 98 98 100 96 94 96 98 85 75 78 80 83 83 82 78 73 74 91 95 94 98 100 88 87 82 82 83 83 79 85
66 79 74 60 61 70 72 77 65 63 89 97 96 98 99 100 98 97 88 83 80 74 72 63 61 61 60 58 61 69 76 81 80 74 66 82 87 87 88 91 93 97 91 91
58 74 91 65 56 52 57 64 64 80 71 81 92 97 81 89 86 82 60 61 60 60 61 61 60 60 60 59 57 56 54 51 53 62 71 73 76 75 80 84 86 85 78 72
58 79 89 54 48 56 72 60 62 67 76 89 85 96 55 72 61 60 62 60 55 53 53 54 54 53 51 51 51 52 53 53 52 49 50 51 58 67 72 73 74 77 83 91
61 72 74 75 66 70 72 65 66 70 91 87 89 84 67 66 67 62 58 50 42 38 32 26 24 26 23 22 22 22 23 28 32 36 39 41 44 47 49 52 58 67 73 77
57 68 70 63 62 58 55 65 73 73 68 74 76 75 68 70 69 61 54 46 42 44 42 35 33 34 36 34 33 28 30 27 22 17 13 15 18 26 35 42 45 50 55 59
60 69 66 62 50 49 52 53 58 64 68 74 72 66 54 56 57 57 52 48 49 47 46 42 39 37 36 35 33 31 27 22 26 28 27 28 29 28 26 22 20 31 47 54
60 71 81 78 59 54 60 51 54 54 61 69 70 58 60 61 60 60 60 57 53 50 38 28 37 34 38 36 36 42 38 43 50 48 47 46 41 36 36 37 37 38 34 28
61 66 76 83 52 59 44 45 45 52 59 63 63 64 60 58 58 55 58 57 52 45 35 38 40 50 51 44 44 40 38 39 39 38 40 41 46 54 61 65 62 57 50 46
58 66 67 62 68 42 49 50 56 50 44 64 68 66 60 56 58 51 46 47 45 38 37 38 33 28 27 32 34 30 25 28 32 34 42 51 60 62 71 87 91 84 83 76
61 63 62 71 51 47 27 45 43 37 49 59 60 68 62 53 44 57 49 50 43 34 15 14 16 17 17 16 18 17 17 18 21 25 34 45 48 53 57 63 74 88 96 98
64 69 70 70 80 62 40 49 40 39 24 56 52 51 55 55 46 43 42 42 40 22 17 24 23 22 23 23 23 23 27 32 41 38 34 38 43 50 54 56 63 72 86 99
53 72 76 74 70 58 51 52 52 38 54 49 51 48 48 46 44 40 29 22 26 26 25 23 20 21 23 30 34 32 43 56 56 56 52 46 47 52 58 66 69 73 77 93
64 56 54 59 58 40 47 40 36 43 44 49 48 49 50 48 47 31 24 30 32 37 40 42 44 48 58 68 80 98 92 99 99 100 98 98 98 87 69 73 78 93 94 99
50 52 60 50 38 49 42 40 41 38 34 38 41 43 44 44 39 23 23 26 30 34 39 49 59 60 61 77 81 96 92 98 91 100 100 100 100 100 96 96 100 100 100 100
48 55 59 64 56 45 40 39 39 42 43 42 44 47 49 46 28 29 35 40 43 50 60 69 70 64 53 65 62 75 91 89 88 100 95 90 94 99 100 100 100 100 100 100
59 60 59 46 37 40 34 32 40 46 45 47 48 51 50 40 27 28 28 32 39 45 52 60 64 58 54 64 66 73 95 90 92 89 94 96 100 100 100 100 96 93 100 93
Wind_Speed
2 3 5 8 8 3 2 7 14 17 18 15 18 23 20 25 18 20 29 32 30 28 30 26 23 24 23 29 28 26 26 24 25 29 31 37 43 43 46 43 42 39 34 35
3 7 8 7 8 7 8 15 19 15 13 7 13 20 22 19 13 23 26 29 29 29 25 20 20 24 28 27 26 26 24 20 20 24 30 36 41 48 36 34 39 39 38 36
6 5 6 4 9 12 14 14 15 14 13 13 13 11 7 3 9 16 21 20 17 18 21 17 20 23 25 22 20 23 22 17 17 20 25 40 46 42 35 32 36 40 39 37
6 5 8 7 10 9 13 8 14 14 7 3 3 5 5 6 6 6 15 21 24 18 23 17 17 15 15 15 19 17 16 14 14 18 9 42 43 40 38 38 41 42 40 37
3 3 6 5 6 6 10 4 9 7 10 4 2 2 5 8 8 8 7 11 18 22 18 18 15 12 7 8 13 16 20 21 17 23 11 25 26 24 32 34 36 35 35 36
8 6 4 4 7 12 11 7 9 2 2 2 5 4 1 5 9 13 8 18 10 19 17 12 13 7 2 6 7 16 18 13 6 19 18 18 17 14 13 17 23 24 23 25
1 3 3 6 7 4 4 2 3 2 1 3 3 3 3 12 17 7 7 16 15 9 14 14 9 8 6 17 19 10 16 15 16 25 17 18 17 16 16 19 17 19 21 23
5 7 3 5 5 3 4 2 2 4 3 3 2 3 3 10 9 8 12 19 18 16 19 18 14 7 11 7 13 21 15 20 30 21 22 19 22 19 11 15 23 24 25 23
4 5 4 8 6 7 2 2 2 3 2 3 3 3 4 14 16 18 23 20 11 26 28 22 17 13 12 13 14 10 16 21 15 12 9 14 20 8 14 13 21 24 20 24
2 4 6 5 2 7 6 3 1 2 4 3 4 3 5 12 10 10 10 8 19 31 30 25 21 20 17 16 15 12 12 6 2 4 5 1 19 17 14 21 21 28 39 35
1 2 6 2 1 3 3 4 2 3 2 3 3 3 5 6 5 5 8 16 21 23 24 24 24 22 22 22 22 20 16 11 7 2 3 6 10 13 18 22 23 23 27 36
2 2 4 7 3 3 3 4 2 3 1 2 3 1 8 9 4 3 11 21 28 28 26 23 20 19 21 21 19 18 16 15 13 11 6 1 6 10 14 16 18 21 22 22
1 2 4 8 6 6 4 6 4 2 3 1 3 1 4 5 4 12 16 22 23 21 19 17 16 17 16 16 15 14 13 12 11 10 8 5 2 3 7 10 14 17 19 20
0 2 3 4 5 3 7 13 7 3 4 2 1 5 2 3 6 8 13 15 18 17 17 16 16 16 15 15 15 14 13 13 13 12 12 11 10 10 11 12 14 16 17 19
2 1 2 4 5 3 2 6 10 6 3 3 6 6 5 5 5 5 7 8 9 12 15 16 15 15 14 14 14 13 14 15 16 16 16 18 19 19 20 20 21 21 20 22
3 1 2 3 5 4 3 4 6 6 5 6 4 1 4 6 8 6 4 3 5 7 10 14 15 15 18 19 19 19 19 19 19 19 18 19 20 21 23 25 27 28 27 26
2 3 2 3 5 5 6 4 2 1 2 6 4 6 5 5 5 5 4 1 4 8 12 14 14 17 16 17 19 20 21 21 22 22 21 21 21 21 22 25 28 30 31 32
1 2 1 2 3 3 5 2 3 4 4 5 2 5 8 6 3 4 4 3 3 7 13 15 17 16 18 21 23 25 25 26 27 28 29 30 31 33 34 32 28 25 27 32
2 3 1 1 2 5 3 4 5 5 6 8 7 5 7 7 5 4 4 1 5 10 13 15 18 20 21 23 25 26 26 27 27 27 28 30 32 33 33 32 33 34 32 29
3 4 3 2 1 5 4 2 5 3 6 11 15 10 9 7 2 3 4 5 10 14 21 22 20 20 21 21 23 24 25 26 28 28 28 29 30 31 34 36 37 37 35 33
1 2 3 1 2 7 5 7 7 4 6 12 21 15 11 4 4 3 8 13 18 21 17 17 18 20 21 23 25 25 24 24 26 26 28 29 31 33 34 36 37 39 38 33
5 4 4 2 3 7 10 6 7 6 2 18 19 17 15 11 6 8 11 12 12 13 14 15 18 19 19 19 20 19 20 21 21 22 23 24 28 33 37 37 37 36 37 38
3 6 3 7 5 4 27 6 20 5 12 17 19 18 15 13 11 10 10 10 11 11 13 14 16 18 17 18 17 19 21 19 23 27 29 31 33 33 32 35 37 38 37 35
4 5 4 2 3 10 18 29 13 15 12 17 17 17 16 14 12 11 11 11 11 11 12 14 15 16 17 18 18 16 21 20 26 25 27 30 32 34 33 34 34 35 38 37
7 5 5 6 9 12 17 23 28 19 17 17 18 17 16 14 12 11 10 10 10 10 11 12 15 17 19 19 20 18 21 23 25 25 28 29 30 32 35 35 35 35 36 36
13 8 6 7 13 7 7 8 26 24 22 20 20 19 17 14 12 10 10 9 10 11 12 14 16 18 17 19 22 20 20 21 24 25 25 27 26 30 32 35 39 37 36 36
Wind_Direction
52 55 250 226 225 242 306 272 276 281 286 285 277 277 278 277 244 238 246 252 256 265 263 263 245 254 257 266 276 260 256 262 272 287 262 226 215 211 204 203 215 204 209 207
9 265 255 242 234 232 246 272 279 284 273 262 268 270 265 264 236 226 235 249 262 266 256 231 246 263 268 269 265 250 252 254 273 284 246 221 217 201 197 200 205 202 208 209
248 241 266 277 265 262 258 262 270 258 297 269 272 280 303 280 210 232 249 265 266 264 223 235 256 272 277 266 252 244 244 252 278 279 204 200 199 194 186 190 205 204 207 211
252 272 242 259 259 243 282 240 250 265 283 268 68 295 325 344 285 226 271 287 282 276 241 247 259 270 257 250 244 240 235 252 282 235 192 181 180 183 181 195 203 211 215 219
251 214 238 275 242 166 242 298 279 269 285 290 212 105 286 348 356 358 338 338 277 254 232 235 243 220 240 266 266 250 245 247 277 236 203 160 164 181 190 197 200 203 207 206
264 298 234 242 269 237 261 307 283 210 281 289 184 153 346 5 319 304 321 331 314 233 218 214 197 180 115 3 298 246 214 228 263 196 207 190 181 168 174 187 195 202 206 212
283 247 270 226 280 202 239 263 297 279 323 259 10 178 20 320 300 255 315 328 333 252 215 180 175 134 38 34 24 107 204 217 201 191 170 175 169 181 192 208 206 201 206 211
19 343 236 186 222 260 260 220 274 353 353 353 10 3 346 331 13 74 60 60 62 67 101 77 51 32 17 14 24 53 75 179 158 186 193 182 171 170 183 189 203 212 219 226
17 282 261 225 203 175 1 263 265 297 290 62 340 358 229 2 32 47 61 67 44 76 77 65 58 43 26 23 35 61 68 140 172 180 203 239 212 226 234 237 235 229 227 246
258 288 231 289 157 216 207 208 251 309 358 36 341 23 12 354 19 57 86 114 86 80 79 77 71 63 59 56 59 63 69 98 200 242 292 284 219 237 229 254 262 243 241 260
241 209 289 278 203 261 318 307 251 114 162 57 351 22 317 336 17 87 109 77 85 84 81 77 76 71 67 66 65 66 68 74 80 101 146 181 219 250 254 259 264 268 260 259
195 200 271 246 269 283 224 291 276 118 337 39 104 1 285 267 267 10 75 72 77 81 81 78 75 66 59 58 59 59 60 64 63 61 57 349 260 255 258 263 266 266 266 260
338 335 329 347 2 354 9 326 302 87 89 338 99 220 315 236 73 57 69 77 79 75 70 64 54 46 38 33 29 25 21 22 20 23 32 40 10 267 258 258 262 265 270 270
177 90 136 176 229 259 329 333 353 95 81 142 127 152 271 58 80 73 81 81 76 68 55 42 32 24 15 8 360 353 346 342 336 332 330 325 315 309 298 291 283 277 273 272
100 87 22 270 266 292 281 328 355 51 176 125 198 167 196 177 166 148 113 95 71 50 36 29 27 21 12 7 360 355 348 344 338 327 317 311 304 296 290 286 282 281 278 277
348 210 69 292 327 4 346 345 359 18 51 59 120 238 180 166 155 158 152 118 76 48 25 19 14 8 5 360 352 351 347 344 336 330 325 315 307 303 299 292 287 284 281 279
7 128 79 276 351 341 320 228 184 240 278 157 173 224 165 179 186 187 201 236 19 10 359 357 358 4 352 346 347 345 350 344 339 341 337 328 321 314 304 298 294 289 284 280
188 106 106 253 18 359 253 300 216 222 225 234 237 179 179 182 185 261 270 259 321 343 347 354 357 354 350 348 339 338 340 337 337 336 333 331 329 325 324 322 317 305 294 288
173 128 118 143 223 285 283 236 190 181 266 187 181 193 192 174 179 207 195 260 325 336 350 348 345 343 338 333 329 326 326 327 327 326 326 327 327 326 324 320 317 316 314 307
81 72 119 140 182 232 251 199 159 107 292 185 175 188 183 173 197 226 234 300 321 328 329 330 329 325 316 309 308 311 312 314 314 317 319 319 321 318 318 318 318 316 315 310
356 353 198 195 252 285 225 158 132 101 245 169 185 197 182 187 219 325 314 305 300 302 310 315 312 311 314 313 311 310 309 309 313 315 315 316 318 317 315 312 312 314 314 311
190 164 211 146 221 281 154 110 167 224 278 179 189 200 201 218 234 258 277 286 295 305 306 303 301 303 304 308 311 301 302 306 311 312 311 313 313 316 317 316 313 313 312 311
256 192 207 190 219 239 186 204 210 210 185 192 199 199 203 206 220 243 257 269 285 294 296 299 303 306 311 317 318 300 319 309 312 307 314 317 314 317 318 317 313 313 313 310
264 193 225 2 269 233 223 224 235 226 222 206 205 205 210 225 232 243 254 265 273 278 282 288 295 306 313 318 324 311 321 317 319 317 312 317 320 322 321 318 315 311 307 306
220 161 218 255 279 275 253 239 234 221 215 212 212 217 218 223 228 232 238 249 263 272 281 289 302 313 321 322 330 320 316 318 318 319 328 332 332 328 322 317 314 313 309 305
187 206 194 245 219 207 257 280 226 217 218 216 215 211 217 229 239 249 258 269 277 286 292 299 308 313 319 321 324 323 318 320 326 327 332 335 328 328 326 319 323 323 314 319